[[{"header":{"parameterUnit":"m.s-1","parameterCategory":1,"la1":30.2991,"la2":30.254,"lo1":-89.0895,"lo2":-89.0444,"dy":0.0017,"dx":0.0017,"nx":28,"ny":28,"refTime":"2025-03-22T21:00:00:Z","depth":0,"parameterNumber":2,"parameterNumberName":"U-component_of_WINDS"},"data":[0,0,0,0,0,0,0,0,0,0,0,0,0,0,0,0,0,0,0,0,0,0,0,0,0,0,0,0,0,0,0,0,0,0,0,0,0,0,0,0,0,0,0,0,0,0,0,0,0,0,0,0,0,0,0,0,0,0,0.3761,0.3763,0,0.3915,0.3917,0.3919,0.3961,0.396,0.3959,0.3959,0.412,0.4125,0.413,0,0,0,0,0,0,0,0,0,0,0,0,0,0.3504,0.3508,0.3761,0.3763,0.3765,0.3915,0.3917,0.3919,0.3961,0.396,0.3959,0.3958,0.4118,0.4124,0.413,0,0,0,0,0,0,0,0,0,0,0,0,0,0.3633,0.351,0.3761,0.3804,0.3809,0.3915,0.3917,0.392,0.3962,0.396,0.3959,0.3958,0.4116,0.4123,0.4131,0.4206,0,0,0.4155,0.4158,0,0,0,0,0,0,0,0,0.3625,0.3642,0.3795,0.3801,0.3807,0.3918,0.3886,0.4016,0.3962,0.3904,0.3959,0.3957,0.4054,0.4066,0.4099,0.4213,0.422,0.4155,0.416,0.4163,0.4165,0,0,0,0,0,0,0,0.3616,0.3636,0.3822,0.3798,0.3805,0.3816,0.3833,0.3911,0.3985,0.3909,0.3912,0.393,0.4057,0.4091,0.4103,0.4222,0.4155,0.4162,0.4167,0.417,0.4405,0.4407,0,0,0,0,0,0,0.36,0.3628,0.3817,0.3827,0.3711,0.3822,0.3841,0.3884,0.3984,0.3998,0.3931,0.3931,0.4079,0.4094,0.4108,0.4202,0.4163,0.417,0.4175,0.4404,0.4406,0.4407,0,0,0,0,0,0,0.3594,0.3616,0.3811,0.3728,0.3754,0.3828,0.3876,0.3887,0.3922,0.4,0.4014,0.3952,0.4078,0.4098,0.4181,0.4208,0.4174,0.4181,0.4402,0.4404,0.4407,0.439,0,0,0,0,0,0,0.3587,0.3614,0.3643,0.3729,0.3758,0.388,0.3877,0.3891,0.3935,0.3937,0.4024,0.4037,0.4078,0.4169,0.4188,0.4218,0.4187,0.44,0.4403,0.4406,0.4388,0.4391,0.4394,0,0,0,0,0,0.3577,0.3633,0.3644,0.3667,0.3796,0.3882,0.3899,0.3944,0.3937,0.3966,0.4017,0.4035,0.4202,0.4177,0.4199,0.4232,0.4398,0.4402,0.4406,0.4387,0.4391,0.4394,0,0,0,0,0,0,0.3549,0.3645,0.3658,0.3743,0.3804,0.3889,0.3928,0.3947,0.4012,0.4011,0.4066,0.4085,0.4164,0.4207,0.4177,0.4309,0.43,0.4309,0.4279,0.4283,0.4286,0.4274,0.4193,0,0,0,0,0,0.3552,0.3614,0.3694,0.3761,0.3791,0.3854,0.3893,0.3922,0.3988,0.4014,0.4071,0.4134,0.4201,0.4244,0.431,0.4394,0.4414,0.4427,0.443,0.4432,0.4439,0.4486,0.4493,0.442,0.442,0.4419,0,0,0.3561,0.362,0.3656,0.3757,0.3808,0.387,0.3875,0.3942,0.3989,0.4025,0.4106,0.415,0.4224,0.4308,0.4348,0.4346,0.4463,0.4437,0.4438,0.4444,0.449,0.4497,0.4503,0.4422,0.4422,0.4421,0,0,0.3608,0.3659,0.372,0.377,0.3846,0.3887,0.3902,0.3984,0.4014,0.4096,0.4124,0.4181,0.4296,0.4347,0.4388,0.4453,0.4472,0.4473,0.4489,0.4534,0.454,0.4545,0.4568,0.4576,0.448,0.448,0.448,0,0.3608,0.3703,0.3749,0.3814,0.3857,0.3891,0.3954,0.4001,0.4095,0.4124,0.412,0.4263,0.4316,0.4412,0.4427,0.446,0.4478,0.4464,0.4535,0.4541,0.4547,0.4569,0.4578,0.4479,0.4479,0.4479,0.4479,0,0.37,0.3766,0.3806,0.3894,0.3943,0.4006,0.4062,0.4105,0.413,0.4172,0.4255,0.4319,0.4398,0.4423,0.4449,0.4522,0.4519,0.4524,0.4517,0.4552,0.4575,0.4584,0.4479,0.4479,0.4479,0.4479,0,0,0.3735,0.3847,0.3861,0.3901,0.3987,0.4039,0.4103,0.418,0.4216,0.4279,0.4335,0.443,0.4435,0.4481,0.4513,0.4553,0.46,0.4553,0.4556,0.456,0.4685,0.468,0.4689,0.4612,0.4614,0.4615,0.4678,0,0.3793,0.3909,0.3951,0.4047,0.4107,0.414,0.4196,0.4255,0.4296,0.4353,0.4399,0.4465,0.4467,0.4495,0.4535,0.4585,0.4625,0.4581,0.4665,0.4667,0.4645,0.4701,0.4697,0.4753,0.4687,0.4689,0.469,0,0.3876,0.3939,0.404,0.4117,0.4144,0.4194,0.4267,0.4322,0.4389,0.4416,0.4467,0.4495,0.4565,0.4552,0.4648,0.4617,0.4654,0.4683,0.4686,0.4696,0.4681,0.4713,0.4772,0.4781,0.4704,0.4703,0.4702,0,0.3891,0.4001,0.4075,0.4109,0.4201,0.4235,0.4275,0.4341,0.4384,0.4448,0.4476,0.4547,0.4587,0.4641,0.4688,0.4675,0.478,0.4772,0.4804,0.4803,0.4826,0.4824,0.4892,0.4849,0.4849,0.4848,0.4848,0,0.3951,0.4011,0.4083,0.4129,0.4198,0.4246,0.4313,0.4355,0.4413,0.4468,0.4501,0.4552,0.4611,0.467,0.4707,0.4781,0.4798,0.4822,0.4831,0.4819,0.4816,0.4844,0.4842,0.4851,0.485,0.485,0.4849,0,0.3979,0.403,0.4113,0.4193,0.4215,0.4262,0.433,0.4376,0.4417,0.4486,0.4506,0.4571,0.4641,0.4693,0.4785,0.481,0.4889,0.4898,0.4866,0.4871,0.49,0.4897,0.499,0.5004,0.495,0.4951,0.4951,0,0.4015,0.4062,0.4146,0.4185,0.4224,0.4286,0.433,0.4379,0.4423,0.4503,0.4539,0.4611,0.4672,0.4784,0.4839,0.4909,0.4921,0.4949,0.4932,0.4918,0.4922,0.4918,0.4923,0.4951,0.4951,0.4952,0.4952,0,0.4072,0.4094,0.4155,0.4225,0.4275,0.4333,0.4391,0.4421,0.448,0.4528,0.46,0.4647,0.474,0.4811,0.4887,0.4929,0.4951,0.4956,0.4968,0.4956,0.4936,0.4947,0.4872,0.4954,0.4954,0.4954,0.4954,0.4954,0.4105,0.4148,0.4214,0.4281,0.4329,0.4382,0.4429,0.4476,0.4536,0.4615,0.464,0.4715,0.478,0.4884,0.4926,0.4985,0.4985,0.5001,0.5006,0.5009,0.5008,0.4925,0.4999,0.4999,0.4999,0.4999,0.4999,0,0.4164,0.4207,0.4268,0.4348,0.44,0.4415,0.4479,0.4522,0.4587,0.4646,0.4705,0.4787,0.4856,0.4917,0.4989,0.5024,0.5036,0.5042,0.504,0.5049,0.5004,0.4987,0.5031,0.5031,0.5031,0.5031,0.5031,0.5031,0.42,0.4274,0.4304,0.4402,0.4446,0.4518,0.4554,0.4603,0.465,0.474,0.4797,0.4836,0.4896,0.4972,0.5036,0.5052,0.5078,0.5081,0.5099,0.5056,0.5052,0.5049,0.5033,0.5086,0.5086,0.5139,0.514,0.514]},{"header":{"parameterUnit":"m.s-1","parameterCategory":1,"la1":30.2991,"la2":30.254,"lo1":-89.0895,"lo2":-89.0444,"dy":0.0017,"dx":0.0017,"nx":28,"ny":28,"refTime":"2025-03-22T21:00:00:Z","depth":0,"parameterNumber":3,"parameterNumberName":"V-component_of_WINDS"},"data":[0,0,0,0,0,0,0,0,0,0,0,0,0,0,0,0,0,0,0,0,0,0,0,0,0,0,0,0,0,0,0,0,0,0,0,0,0,0,0,0,0,0,0,0,0,0,0,0,0,0,0,0,0,0,0,0,0,0,3.152,3.152,0,3.1511,3.1511,3.1511,3.1463,3.1461,3.146,3.1459,3.1448,3.1449,3.145,0,0,0,0,0,0,0,0,0,0,0,0,0,3.149,3.1491,3.152,3.152,3.1519,3.1511,3.1511,3.1511,3.1463,3.1461,3.146,3.1459,3.1448,3.1449,3.145,0,0,0,0,0,0,0,0,0,0,0,0,0,3.1494,3.1491,3.152,3.1495,3.1492,3.1511,3.1511,3.1511,3.1463,3.1461,3.146,3.1458,3.1448,3.1449,3.145,3.1492,0,0,3.1453,3.1454,0,0,0,0,0,0,0,0,3.1494,3.1496,3.1498,3.1496,3.1494,3.1486,3.1496,3.1504,3.1464,3.1474,3.1459,3.1457,3.1462,3.1462,3.1464,3.1491,3.1491,3.1454,3.1454,3.1455,3.1455,0,0,0,0,0,0,0,3.1494,3.1496,3.1516,3.1498,3.1496,3.1482,3.1481,3.1498,3.1478,3.1473,3.147,3.1469,3.146,3.1463,3.1463,3.149,3.1453,3.1455,3.1455,3.1456,3.1547,3.1548,0,0,0,0,0,0,3.1498,3.1496,3.1516,3.1516,3.149,3.1484,3.1483,3.149,3.1477,3.1474,3.1471,3.1467,3.1462,3.1462,3.1463,3.1507,3.1455,3.1456,3.1456,3.1545,3.1547,3.1549,0,0,0,0,0,0,3.1497,3.15,3.1517,3.1505,3.1506,3.1487,3.1495,3.1491,3.1494,3.1476,3.1472,3.1477,3.1461,3.1461,3.1484,3.1507,3.1456,3.1457,3.1543,3.1546,3.1548,3.1599,0,0,0,0,0,0,3.1497,3.15,3.1517,3.1506,3.1507,3.154,3.1497,3.1492,3.1496,3.1491,3.1481,3.1477,3.1459,3.1482,3.1485,3.1507,3.1458,3.1541,3.1544,3.1547,3.1596,3.1603,3.161,0,0,0,0,0,3.1496,3.1532,3.1518,3.1521,3.1528,3.1541,3.1542,3.152,3.1498,3.1514,3.1502,3.1478,3.1504,3.1485,3.1488,3.1511,3.1539,3.1543,3.1547,3.1592,3.1602,3.161,0,0,0,0,0,0,3.1547,3.153,3.1515,3.1549,3.1547,3.1533,3.1552,3.1532,3.1536,3.1531,3.1504,3.1502,3.1528,3.1522,3.1501,3.1548,3.1517,3.1522,3.1551,3.156,3.1567,3.1567,3.1459,0,0,0,0,0,3.1562,3.1576,3.156,3.1592,3.1591,3.1572,3.1577,3.1561,3.1557,3.1556,3.1546,3.1543,3.1549,3.1555,3.1561,3.1595,3.159,3.1612,3.1619,3.1625,3.1629,3.1642,3.1651,3.1562,3.1562,3.1562,0,0,3.1594,3.1586,3.1597,3.1602,3.1598,3.161,3.1572,3.1588,3.1596,3.1558,3.1578,3.1571,3.1565,3.1593,3.1604,3.1588,3.1652,3.163,3.1635,3.1635,3.1647,3.1656,3.1663,3.1564,3.1564,3.1563,0,0,3.1657,3.1654,3.1678,3.1675,3.167,3.1657,3.1663,3.1651,3.1645,3.1665,3.1636,3.1645,3.1659,3.1654,3.1654,3.1713,3.169,3.1716,3.1753,3.1767,3.1774,3.178,3.1797,3.1804,3.172,3.172,3.172,0,3.1696,3.1715,3.1693,3.171,3.1711,3.1678,3.1701,3.1699,3.1696,3.1697,3.1679,3.1694,3.1688,3.1712,3.1726,3.1728,3.1732,3.1716,3.1775,3.1781,3.1786,3.1802,3.1809,3.1723,3.1723,3.1722,3.1722,0,3.1762,3.1775,3.1795,3.1792,3.1796,3.1816,3.1795,3.1802,3.1785,3.1773,3.1791,3.1783,3.1785,3.179,3.1774,3.1811,3.1801,3.178,3.1748,3.1798,3.1812,3.1819,3.1727,3.1726,3.1725,3.1725,0,0,3.1857,3.1841,3.1848,3.1845,3.1836,3.1845,3.1862,3.1864,3.1868,3.1867,3.1878,3.189,3.1869,3.1869,3.1852,3.1864,3.1907,3.1841,3.184,3.1851,3.1943,3.1957,3.1965,3.1892,3.1894,3.1895,3.1942,0,3.1915,3.1943,3.1923,3.1954,3.1964,3.1932,3.1946,3.1941,3.1929,3.1935,3.1922,3.1929,3.1903,3.1902,3.1913,3.19,3.1925,3.1896,3.19,3.19,3.19,3.1973,3.1989,3.2034,3.1948,3.1949,3.195,0,3.1986,3.1987,3.2019,3.2005,3.2008,3.2022,3.202,3.2026,3.2019,3.2009,3.2008,3.1987,3.2,3.197,3.1986,3.1967,3.1968,3.1961,3.1962,3.196,3.1927,3.197,3.2049,3.2055,3.196,3.1959,3.1958,0,3.2048,3.2057,3.2076,3.2075,3.206,3.207,3.2064,3.2055,3.2056,3.2054,3.2054,3.2055,3.2054,3.2054,3.2032,3.2013,3.2049,3.2019,3.2039,3.204,3.2047,3.2046,3.2124,3.2052,3.2052,3.2052,3.2052,0,3.2113,3.2133,3.2103,3.2115,3.2135,3.2111,3.2132,3.2122,3.2114,3.2121,3.2094,3.2102,3.2074,3.2078,3.2062,3.2075,3.2076,3.2067,3.2062,3.2068,3.2068,3.2066,3.2061,3.2054,3.2053,3.2053,3.2053,0,3.2184,3.2166,3.2184,3.2168,3.2164,3.218,3.2165,3.2174,3.216,3.217,3.2171,3.2149,3.2152,3.2131,3.2131,3.2119,3.214,3.213,3.2142,3.2138,3.2159,3.2156,3.2235,3.2243,3.2169,3.217,3.217,0,3.2226,3.224,3.2225,3.2228,3.2223,3.2229,3.223,3.2206,3.2208,3.2199,3.2208,3.2209,3.2208,3.2214,3.2197,3.2195,3.2184,3.2212,3.2183,3.2188,3.218,3.2178,3.2178,3.2217,3.2218,3.2219,3.2219,0,3.23,3.2289,3.2292,3.2291,3.2292,3.229,3.2286,3.229,3.2264,3.2267,3.2269,3.2268,3.2267,3.2267,3.2261,3.2253,3.2231,3.2229,3.2233,3.2238,3.2243,3.2237,3.2155,3.2226,3.2226,3.2225,3.2225,3.2224,3.2355,3.2365,3.2355,3.2358,3.2352,3.2348,3.2355,3.2342,3.2344,3.234,3.2326,3.233,3.2319,3.231,3.2304,3.2305,3.2292,3.2299,3.23,3.2301,3.2303,3.2244,3.2305,3.2305,3.2304,3.2304,3.2304,0,3.2425,3.2416,3.2419,3.2414,3.2415,3.2395,3.2389,3.2391,3.2395,3.2388,3.2387,3.2388,3.2387,3.237,3.2367,3.2371,3.236,3.2371,3.2369,3.2366,3.2318,3.2313,3.2379,3.2379,3.2379,3.2379,3.2379,3.2379,3.2461,3.2475,3.2463,3.2474,3.2465,3.2469,3.2467,3.2462,3.2455,3.2458,3.2457,3.2446,3.2433,3.2428,3.2426,3.2421,3.2419,3.2432,3.2423,3.2378,3.237,3.2363,3.2359,3.2433,3.2433,3.2471,3.2472,3.2472]}]]